Vertical_Velocity
-5 -10 -15 -16 -8 1 9 11 13 17 20 20 13 4 -2 -3 -3 2 9 15 4 -3 -6 -2 -1 3 7 10 10 12 13 14 13 11 8 6 5 4 3 2 1 0 -1 -1 -0 1 2 5 8 9 12 18 31 23 6 -5 -5 -4 -3 -3 -2 -2 -1 -2 -3 -4 -5 -5 -4
-0 -5 -10 -13 -5 6 14 14 14 20 27 33 19 4 -6 -2 -1 3 8 11 -2 -11 -14 -9 -6 -3 -2 -2 -2 3 7 10 13 13 11 8 6 5 4 2 1 -0 -1 -1 -0 2 7 13 20 22 24 33 27 11 -4 -7 -7 -6 -5 -5 -3 -2 -1 -2 -4 -4 -4 -4 -3
-2 -1 -1 -4 2 10 16 14 11 10 12 20 20 10 0 2 0 -3 -6 -9 -17 -18 -14 -6 -3 -2 -3 -5 -4 0 4 4 8 11 11 6 4 3 1 0 -1 -1 -1 -1 -1 5 14 24 28 24 19 16 5 -3 -8 -9 -10 -10 -9 -8 -7 -5 -4 -4 -4 -4 -3 -2 -1
-5 -4 -3 -4 4 13 18 15 12 6 2 5 9 8 5 4 -2 -10 -17 -22 -21 -16 -9 -4 -2 -1 -1 -1 -0 4 9 13 13 13 10 5 2 0 -2 -4 -4 -3 -1 -1 -0 5 14 27 22 10 -1 -4 -5 -8 -11 -12 -13 -13 -13 -13 -11 -9 -6 -4 -3 -3 -2 -2 -1
-1 -1 -1 1 10 17 20 17 13 8 3 -1 -9 -9 -5 0 -2 -5 -8 -10 -10 -9 -6 -5 -4 -3 -3 -1 4 10 16 22 16 8 1 -0 -1 -2 -3 -5 -5 -3 -2 -1 -2 0 6 18 13 3 -4 -3 -4 -8 -14 -19 -20 -19 -17 -15 -11 -8 -6 -5 -5 -4 -3 -2 -2
3 3 4 7 13 16 17 15 11 9 8 12 7 2 -1 2 6 6 4 0 -3 -4 -5 -5 -6 -6 -6 -3 10 19 18 6 -9 -16 -16 -10 -7 -6 -5 -3 -2 -1 -1 -2 -3 -2 2 10 7 3 -2 -7 -15 -20 -24 -26 -23 -17 -11 -6 -4 -3 -3 -4 -4 -4 -3 -2 -1
3 4 6 10 14 17 18 18 11 5 4 10 11 7 3 2 5 6 4 -0 -3 -3 -3 -3 -4 -6 -7 -8 -3 -1 -4 -13 -17 -14 -9 -4 -4 -4 -4 -3 -1 -1 -3 -5 -3 -0 4 8 8 6 1 -6 -14 -16 -15 -12 -8 -1 5 9 7 4 1 -1 -2 -3 -2 -1 -1
3 3 6 10 15 20 24 24 19 16 14 9 2 -2 -5 -6 -4 -3 -3 -4 -4 -2 -2 -2 -4 -6 -9 -11 -12 -10 -7 -4 -1 2 3 3 1 -0 -1 0 -2 -5 -8 -9 -5 -0 3 5 7 9 10 10 4 1 1 1 5 8 9 8 8 6 3 1 -1 -2 -2 -1 -1
3 3 5 7 15 19 19 15 15 19 19 10 -3 -8 -8 -7 -6 -5 -5 -6 -7 -6 -4 -4 -7 -8 -10 -10 -9 -4 3 10 10 9 6 5 4 4 5 8 2 -5 -9 -8 -6 -3 -1 1 2 3 5 8 8 8 7 6 10 12 10 4 2 2 2 1 -0 -1 -1 -1 -1
3 3 5 7 15 20 20 13 5 2 0 -4 -8 -8 -6 -4 -2 -0 0 -1 -3 -4 -5 -7 -10 -11 -9 -7 -5 -1 4 10 11 10 7 6 5 4 7 16 18 7 -4 -6 -6 -7 -8 -7 -6 -6 -5 -2 0 3 6 7 9 11 10 4 1 0 1 1 0 -0 -1 -0 -1
-1 -0 1 3 8 12 15 18 23 21 14 2 -2 2 8 11 10 7 4 -2 -6 -9 -11 -12 -11 -8 -5 -5 -3 -0 3 5 5 4 3 2 2 1 4 15 26 19 8 3 -4 -9 -10 -8 -7 -6 -3 -0 3 3 3 1 0 2 3 4 2 1 1 1 0 -0 -0 -1 -1
-6 -6 -5 -4 -0 1 2 4 15 22 25 23 22 21 20 19 18 13 6 -6 -12 -16 -16 -13 -8 -4 -2 -4 -2 -0 2 3 2 1 0 -0 -1 -3 -2 4 15 20 22 23 7 -3 -7 -4 -2 1 5 8 6 3 -1 -3 -3 -1 1 3 3 3 3 1 0 -0 -1 -1 -1
-6 -6 -6 -4 -3 -1 -1 -2 -2 -1 4 13 20 20 18 19 21 17 9 -1 -6 -10 -12 -11 -3 -1 -2 -5 -4 -1 2 3 3 3 1 -0 -3 -6 -6 -4 2 7 11 14 9 3 -2 -2 -1 0 2 5 4 2 1 0 2 3 3 3 3 3 2 2 0 -1 -1 -2 -1
-4 -4 -3 -2 -2 -2 -1 -0 -1 -3 -4 -1 6 8 9 11 12 7 0 -3 -1 -1 -5 -11 -3 1 0 -6 -4 -2 1 2 3 3 2 1 -4 -6 -8 -7 -6 -4 -2 0 2 2 1 -0 -1 -2 -1 -1 -1 -1 -1 1 5 6 5 3 2 2 1 1 -0 -1 -2 -2 -2
-2 -1 -1 -1 -1 -1 -1 0 0 0 0 1 3 4 5 5 5 1 -2 -2 1 2 -1 -9 -6 -2 -0 -5 -3 -1 -0 -1 -0 0 0 -1 -4 -6 -7 -8 -7 -6 -4 -3 -1 -0 1 0 -2 -2 -2 -1 -1 -0 0 3 5 5 4 1 1 1 0 -1 -2 -2 -2 -1 -1
1 1 1 0 0 0 0 1 1 2 4 6 6 6 6 7 4 2 1 2 2 3 2 -1 -6 -9 -10 -11 -8 -6 -4 -4 -4 -5 -5 -6 -7 -7 -8 -8 -8 -8 -7 -6 -4 -2 -1 -1 -2 -2 -1 1 3 4 5 4 3 2 2 1 1 0 -1 -2 -2 -3 -2 -1 0
2 2 2 2 2 2 2 1 2 3 4 7 8 9 9 9 6 3 2 4 2 0 -1 -2 -5 -10 -13 -14 -13 -11 -10 -9 -7 -6 -7 -9 -9 -10 -10 -11 -10 -10 -9 -7 -5 -4 -3 -2 -1 1 3 5 5 5 4 1 0 0 1 1 0 -1 -2 -3 -3 -3 -2 -1 -0
2 2 2 2 3 3 2 1 2 2 4 5 7 7 8 7 5 3 2 2 -0 -3 -5 -6 -7 -7 -7 -6 -6 -5 -4 -2 -0 -0 -1 -4 -5 -7 -9 -10 -9 -9 -8 -7 -5 -3 -1 1 2 4 5 5 3 2 0 -1 -1 -1 -0 -1 -1 -2 -3 -3 -3 -2 -2 -1 -1
1 1 1 1 2 2 2 1 1 2 2 3 4 5 5 4 3 2 1 1 -1 -4 -6 -6 -5 -3 -0 2 3 5 7 8 7 6 4 3 2 1 -1 -2 -2 -1 -1 -1 -0 1 2 3 3 3 2 1 0 -0 -1 -1 -1 -1 -1 -2 -3 -3 -3 -3 -3 -2 -1 -1 -1
0 0 0 0 1 1 1 1 1 1 1 1 2 2 2 2 1 1 2 1 -1 -3 -4 -3 -2 -0 1 2 4 6 7 7 7 6 5 4 4 4 3 3 3 4 4 4 3 3 2 2 1 1 0 -0 -0 -0 -1 -1 -1 -2 -3 -3 -4 -3 -3 -3 -2 -2 -1 -1 -1
1 1 1 1 1 1 1 1 1 1 1 1 1 1 1 0 0 1 2 1 -0 -1 -1 0 2 3 3 4 4 5 5 4 5 5 5 5 4 4 5 5 5 5 4 3 3 2 1 1 0 -0 -0 -0 -0 -1 -1 -2 -2 -3 -4 -4 -4 -3 -3 -2 -2 -1 -1 -0 -1
1 1 1 1 1 1 1 1 1 1 1 0 0 0 0 0 1 1 2 2 1 1 2 3 4 4 4 4 4 4 4 4 4 4 5 5 4 4 4 5 4 4 3 2 1 1 0 0 -0 -1 -1 -0 -0 -1 -1 -2 -3 -3 -4 -4 -3 -3 -2 -1 -1 -1 -0 -0 -1
0 1 1 1 1 1 1 1 1 1 1 1 0 0 0 1 1 2 2 2 2 3 3 3 3 3 3 3 3 3 3 3 3 3 3 3 3 3 3 3 3 2 2 1 0 -0 -0 -0 -0 -1 -1 -0 -0 -1 -1 -2 -2 -2 -2 -2 -2 -2 -1 -1 -1 -0 -0 -0 -1
-1 -0 0 1 1 1 1 1 1 1 1 1 0 0 1 1 2 3 3 4 4 4 4 3 2 2 2 2 2 2 2 2 2 2 2 2 2 1 1 1 1 1 1 1 0 0 0 0 0 -0 -0 -0 -0 -1 -1 -2 -2 -1 -1 -1 -1 -1 -1 -1 -1 -0 -0 -0 -1
-1 -1 -0 0 1 1 1 1 1 1 1 1 1 1 1 2 3 3 4 4 4 4 3 2 1 1 1 1 1 1 1 2 1 1 1 0 0 1 1 0 1 1 1 1 1 0 0 0 0 0 0 -0 -0 -0 -1 -1 -1 -1 -1 -1 -1 -1 -1 -1 -1 -1 -1 -0 -1
-0 -0 0 0 0 0 1 1 1 1 0 0 1 1 2 2 3 3 4 3 3 3 2 1 1 1 0 0 0 1 1 1 1 1 0 -0 0 0 1 1 1 2 2 1 1 1 1 0 0 0 0 0 -0 -0 -1 -1 -1 -2 -2 -2 -2 -2 -2 -2 -1 -2 -2 -1 -1
1 1 0 -0 0 1 1 0 0 0 0 0 1 1 2 2 2 3 2 2 2 1 1 1 1 1 -0 -1 -0 0 1 1 1 0 0 0 0 1 1 2 2 2 2 1 1 1 0 0 0 0 0 0 -0 -1 -2 -2 -2 -3 -3 -3 -2 -2 -2 -2 -2 -2 -3 -3 -2
1 1 0 0 1 1 1 1 1 0 0 1 1 1 1 2 2 2 2 1 1 1 1 1 1 0 -0 -1 -0 0 1 1 1 1 1 1 1 1 1 1 2 1 1 1 1 0 0 -0 -0 -0 0 0 -0 -1 -2 -2 -3 -3 -3 -2 -2 -1 -1 -1 -1 -2 -2 -2 -3
-0 -0 -0 0 0 0 1 1 1 1 1 1 1 1 1 2 2 2 1 1 1 1 1 0 -0 -0 -0 -0 -0 0 0 1 1 1 1 1 1 1 1 1 1 1 1 1 1 0 0 -0 -0 -0 -0 -0 -0 -0 -1 -1 -2 -1 -1 -1 -0 0 0 0 -0 -1 -1 -1 -2
-1 -1 -1 -0 -0 0 1 1 1 2 2 2 2 2 2 2 2 2 1 1 1 0 0 -0 -0 -0 -0 -0 0 0 1 1 1 1 1 0 0 0 0 0 0 1 1 1 1 1 1 0 -0 -0 -0 0 0 0 -0 -1 -1 -1 -0 0 0 0 0 -0 -0 -1 -1 -1 -1
-2 -1 -1 -1 -0 -0 0 0 1 1 2 2 2 2 2 3 2 2 1 1 0 0 -0 0 0 0 0 0 0 1 1 1 1 1 1 0 0 -0 -0 0 1 1 2 2 2 1 1 1 0 -0 -0 0 0 0 -0 -1 -1 -0 0 0 0 -0 -1 -1 -1 -1 -1 -1 -1
-2 -2 -1 -1 -1 -1 -0 0 0 1 1 1 2 2 2 2 2 1 1 1 1 1 1 1 1 0 0 0 1 1 1 1 1 0 0 0 0 -0 -0 0 1 1 2 2 2 2 1 0 -0 -0 -0 0 0 0 -0 -1 -1 -0 0 0 -0 -1 -1 -2 -2 -2 -2 -2 -2
-2 -2 -1 -1 -1 -1 -0 -0 -0 0 0 1 1 2 2 2 1 1 1 1 1 1 1 1 1 1 1 1 1 1 1 1 0 0 0 0 0 0 0 0 1 2 2 2 2 1 1 0 -0 -0 -0 0 0 0 -0 -1 -0 0 0 0 -0 -1 -1 -2 -2 -3 -3 -2 -2
-2 -2 -2 -1 -1 -1 -0 -0 -0 -0 0 1 1 1 1 1 1 1 1 1 1 1 1 1 1 1 1 1 1 1 1 0 0 0 0 0 0 0 0 0 1 2 2 2 2 1 0 -0 -0 0 0 1 0 -0 -1 -0 0 0 0 -0 -1 -1 -2 -3 -3 -3 -2 -2 -2
-2 -1 -1 -1 -1 -1 -0 -0 -0 -0 0 1 1 1 2 2 2 1 1 0 1 1 1 1 1 1 1 1 1 1 0 -0 -0 -0 0 0 0 0 0 0 1 1 2 2 1 0 -0 -0 0 1 1 1 0 -0 -0 -0 0 0 -0 -1 -2 -3 -3 -3 -3 -3 -2 -2 -2
-1 -1 -1 -1 -1 -0 -0 -0 -0 0 1 1 1 1 2 2 1 1 1 0 1 1 1 1 1 1 1 1 0 -0 -0 -0 -0 -0 0 0 0 0 0 -0 0 1 1 1 1 0 0 0 1 2 2 2 1 -0 -1 -0 -0 -0 -1 -2 -3 -3 -4 -4 -3 -3 -2 -2 -2
-1 -1 -1 -1 -0 -0 -0 -0 -0 0 1 1 1 1 1 1 1 1 0 1 1 1 1 1 1 1 0 -0 -1 -1 -1 -0 0 0 0 1 1 0 0 -0 -0 0 1 1 1 1 1 1 2 2 2 2 0 -1 -1 -1 -1 -1 -1 -2 -3 -3 -4 -3 -3 -2 -2 -2 -3
-2 -1 -1 -0 -0 -0 -0 -0 -0 0 0 1 1 1 1 1 1 1 1 1 1 1 1 0 0 -0 -1 -1 -1 -0 0 1 1 1 0 1 1 1 0 -0 -1 -0 0 1 2 2 1 1 2 3 2 1 -1 -2 -2 -1 -1 -1 -2 -2 -3 -3 -3 -3 -3 -2 -2 -2 -3
-2 -1 -0 1 0 0 -0 -0 -0 -0 0 0 0 0 0 1 1 0 0 1 1 1 0 0 -0 -1 -1 -1 0 1 1 0 0 0 1 1 1 1 1 0 -0 -0 0 2 2 2 2 2 2 2 2 0 -2 -2 -2 -1 -1 -2 -2 -2 -2 -3 -3 -3 -3 -2 -2 -3 -3
0 0 1 2 2 1 1 1 0 -0 -0 0 0 1 0 0 -0 -0 0 1 1 1 1 0 -1 -1 -0 1 1 1 0 -0 0 0 1 1 2 2 2 1 0 0 1 1 2 2 1 1 2 2 1 -1 -2 -2 -2 -1 -1 -2 -2 -2 -2 -2 -3 -4 -3 -2 -2 -3 -3
1 1 2 2 2 2 2 1 1 0 0 1 1 0 -0 -0 -0 -0 0 1 1 1 1 0 -0 -0 0 1 1 1 0 -0 0 1 2 3 3 3 3 2 1 0 0 1 1 1 1 1 1 2 1 -1 -2 -2 -2 -1 -1 -2 -2 -2 -2 -2 -2 -4 -4 -3 -2 -2 -3
Height
3106 3107 3108 3108 3109 3109 3109 3109 3109 3109 3108 3106 3105 3105 3106 3107 3108 3109 3110 3109 3110 3112 3114 3115 3116 3117 3118 3118 3118 3118 3119 3119 3119 3120 3120 3122 3122 3123 3124 3125 3125 3126 3128 3129 3129 3130 3130 3130 3130 3130 3130 3131 3130 3130 3131 3133 3135 3136 3137 3138 3139 3139 3140 3140 3140 3140 3140 3140 3140
3104 3105 3106 3107 3107 3108 3108 3107 3106 3104 3103 3102 3103 3104 3105 3105 3106 3107 3107 3107 3107 3109 3111 3113 3115 3116 3116 3117 3117 3117 3118 3118 3118 3118 3119 3120 3121 3122 3122 3123 3124 3125 3126 3127 3128 3128 3128 3128 3128 3127 3127 3127 3126 3126 3128 3130 3132 3134 3135 3136 3137 3137 3137 3138 3138 3138 3138 3138 3138
3103 3103 3104 3105 3105 3105 3105 3103 3102 3101 3101 3100 3100 3101 3101 3103 3104 3105 3105 3105 3106 3108 3110 3112 3113 3114 3115 3115 3115 3115 3116 3117 3117 3117 3117 3118 3119 3120 3121 3121 3122 3123 3124 3125 3126 3126 3126 3125 3125 3124 3125 3125 3124 3124 3126 3128 3130 3132 3133 3134 3134 3135 3135 3135 3135 3136 3136 3136 3136
3102 3103 3104 3104 3103 3103 3102 3101 3100 3100 3100 3099 3098 3098 3099 3100 3102 3102 3103 3104 3105 3107 3109 3110 3112 3113 3114 3114 3115 3115 3115 3115 3116 3116 3116 3116 3117 3118 3119 3120 3120 3121 3122 3123 3124 3125 3124 3122 3121 3122 3124 3125 3124 3124 3125 3127 3129 3130 3130 3131 3131 3132 3133 3133 3134 3134 3134 3134 3134
3101 3102 3102 3102 3101 3100 3100 3099 3098 3098 3098 3096 3095 3095 3097 3099 3099 3100 3100 3102 3104 3105 3107 3109 3110 3111 3112 3113 3113 3113 3112 3112 3113 3114 3114 3115 3115 3116 3117 3118 3119 3120 3120 3121 3122 3123 3122 3120 3120 3121 3123 3123 3123 3123 3124 3125 3126 3127 3128 3129 3130 3130 3131 3131 3131 3131 3131 3130 3131
3100 3101 3101 3101 3100 3099 3099 3098 3096 3096 3096 3095 3094 3095 3096 3098 3099 3099 3100 3100 3102 3103 3105 3106 3107 3109 3110 3111 3111 3110 3109 3110 3110 3111 3113 3114 3115 3115 3115 3116 3117 3118 3119 3119 3120 3120 3120 3120 3120 3120 3120 3120 3120 3120 3121 3122 3124 3125 3126 3127 3128 3129 3129 3129 3129 3129 3129 3129 3129
3098 3099 3099 3099 3099 3099 3098 3096 3094 3094 3095 3094 3094 3094 3095 3097 3098 3099 3099 3100 3100 3101 3103 3104 3105 3107 3109 3110 3110 3110 3110 3110 3110 3111 3112 3113 3113 3114 3114 3115 3115 3116 3116 3117 3118 3118 3119 3118 3118 3119 3119 3118 3118 3118 3119 3120 3122 3123 3124 3124 3125 3125 3126 3126 3126 3126 3126 3126 3126
3097 3097 3097 3097 3097 3098 3097 3095 3093 3092 3092 3093 3093 3093 3094 3095 3096 3097 3098 3099 3099 3100 3101 3103 3104 3105 3107 3107 3108 3108 3108 3108 3108 3109 3109 3110 3110 3111 3112 3113 3113 3114 3114 3115 3116 3117 3117 3117 3117 3117 3117 3118 3117 3118 3119 3120 3121 3122 3122 3121 3122 3123 3124 3124 3124 3124 3123 3123 3123
3095 3095 3095 3095 3095 3095 3095 3094 3092 3090 3090 3091 3092 3092 3093 3094 3095 3095 3096 3097 3098 3099 3100 3101 3102 3103 3104 3104 3104 3104 3104 3104 3104 3105 3106 3107 3108 3109 3110 3110 3110 3110 3111 3113 3114 3115 3116 3115 3115 3116 3117 3117 3117 3118 3118 3120 3119 3119 3119 3120 3120 3121 3121 3121 3121 3121 3121 3120 3120
3092 3093 3093 3093 3092 3093 3093 3092 3091 3090 3090 3090 3091 3091 3091 3092 3092 3093 3094 3095 3096 3097 3098 3099 3099 3100 3100 3101 3101 3101 3102 3102 3102 3103 3104 3105 3105 3107 3108 3108 3108 3108 3108 3110 3112 3113 3114 3114 3115 3115 3116 3117 3117 3118 3118 3118 3117 3117 3117 3117 3118 3119 3119 3118 3118 3118 3118 3118 3118
3089 3090 3091 3090 3090 3090 3090 3090 3091 3091 3090 3089 3089 3089 3088 3088 3089 3089 3090 3091 3092 3093 3095 3095 3096 3096 3097 3097 3098 3099 3100 3100 3101 3102 3102 3103 3104 3104 3105 3106 3107 3107 3107 3107 3109 3110 3112 3113 3114 3114 3114 3115 3115 3115 3115 3115 3115 3115 3115 3116 3116 3116 3116 3116 3116 3116 3115 3115 3115
3086 3087 3088 3088 3088 3087 3087 3087 3087 3088 3088 3086 3086 3085 3085 3085 3085 3086 3087 3088 3089 3090 3091 3092 3093 3093 3093 3094 3096 3097 3098 3099 3099 3100 3100 3101 3102 3102 3103 3104 3105 3105 3105 3105 3107 3109 3110 3111 3111 3111 3112 3112 3113 3113 3113 3113 3113 3113 3113 3114 3114 3114 3114 3113 3113 3113 3113 3112 3112
3084 3085 3085 3086 3086 3085 3085 3085 3085 3086 3086 3085 3084 3083 3083 3083 3083 3084 3085 3087 3088 3089 3090 3091 3091 3091 3091 3092 3094 3095 3096 3097 3098 3099 3100 3100 3101 3101 3102 3103 3103 3103 3103 3104 3105 3107 3109 3110 3110 3110 3110 3110 3110 3111 3111 3111 3111 3111 3111 3112 3112 3111 3111 3111 3110 3110 3110 3110 3110
3082 3082 3083 3083 3083 3083 3083 3083 3083 3084 3084 3084 3083 3082 3081 3081 3081 3082 3084 3087 3088 3088 3089 3091 3091 3091 3091 3092 3093 3093 3094 3095 3097 3098 3099 3100 3100 3100 3101 3102 3102 3102 3102 3104 3105 3106 3107 3108 3108 3109 3109 3109 3109 3109 3109 3109 3109 3109 3110 3110 3109 3109 3109 3108 3108 3107 3107 3107 3107
3080 3080 3081 3081 3081 3081 3081 3081 3081 3082 3082 3082 3081 3080 3080 3080 3081 3082 3084 3085 3086 3088 3089 3090 3091 3091 3091 3092 3092 3092 3092 3094 3095 3097 3098 3098 3099 3099 3100 3101 3101 3101 3102 3103 3104 3104 3105 3105 3106 3106 3106 3106 3107 3106 3106 3107 3107 3107 3107 3107 3106 3106 3106 3105 3105 3105 3105 3105 3105
3078 3078 3079 3079 3080 3080 3079 3080 3080 3080 3080 3080 3080 3080 3080 3080 3080 3080 3082 3083 3084 3085 3087 3088 3089 3090 3090 3091 3091 3092 3093 3093 3094 3095 3096 3096 3097 3097 3098 3098 3099 3099 3100 3100 3101 3102 3102 3103 3103 3104 3104 3104 3104 3104 3103 3104 3104 3104 3104 3104 3104 3103 3103 3103 3102 3102 3102 3102 3102
3076 3076 3077 3077 3077 3077 3077 3077 3078 3078 3078 3078 3079 3079 3079 3079 3079 3079 3080 3080 3082 3083 3084 3085 3086 3087 3088 3088 3089 3089 3090 3091 3092 3093 3093 3094 3094 3095 3095 3096 3096 3097 3097 3098 3098 3099 3099 3100 3100 3101 3100 3100 3100 3101 3101 3101 3101 3101 3101 3101 3101 3100 3100 3100 3100 3100 3100 3100 3100
3074 3075 3075 3075 3075 3075 3075 3075 3075 3076 3076 3076 3077 3077 3077 3077 3077 3078 3078 3079 3079 3080 3081 3083 3084 3085 3085 3085 3086 3086 3087 3088 3090 3091 3091 3091 3091 3092 3092 3093 3094 3094 3095 3095 3095 3096 3097 3097 3097 3097 3097 3098 3098 3098 3098 3098 3098 3098 3098 3098 3098 3098 3098 3098 3097 3097 3097 3097 3097
3072 3073 3073 3073 3073 3074 3074 3074 3074 3074 3074 3074 3075 3075 3075 3076 3076 3076 3077 3077 3078 3078 3079 3080 3082 3083 3084 3084 3085 3085 3085 3086 3087 3088 3088 3088 3089 3089 3089 3090 3091 3091 3091 3092 3093 3094 3094 3094 3095 3095 3095 3095 3095 3095 3095 3095 3096 3095 3095 3095 3095 3095 3095 3095 3095 3095 3095 3095 3094
3070 3070 3070 3071 3071 3071 3071 3071 3071 3071 3072 3072 3073 3073 3073 3074 3074 3075 3075 3075 3076 3077 3078 3079 3080 3081 3082 3082 3083 3083 3084 3084 3085 3085 3085 3086 3086 3086 3087 3088 3088 3088 3089 3089 3090 3090 3091 3091 3092 3092 3092 3092 3092 3093 3093 3093 3093 3093 3093 3093 3093 3093 3093 3092 3092 3092 3092 3092 3092
3067 3068 3068 3069 3069 3069 3069 3069 3069 3070 3070 3070 3070 3071 3071 3072 3072 3073 3073 3074 3075 3075 3076 3077 3078 3079 3079 3080 3080 3081 3081 3081 3082 3082 3083 3083 3084 3084 3085 3085 3085 3086 3086 3087 3087 3088 3088 3088 3089 3089 3090 3090 3090 3090 3090 3090 3090 3090 3090 3090 3090 3090 3090 3090 3090 3090 3089 3089 3089
3065 3065 3065 3066 3066 3066 3067 3067 3067 3067 3068 3068 3068 3069 3069 3070 3070 3071 3071 3072 3073 3074 3074 3075 3076 3076 3077 3077 3078 3078 3079 3079 3079 3080 3080 3080 3081 3081 3082 3083 3083 3083 3084 3084 3085 3085 3085 3086 3086 3086 3087 3087 3087 3087 3087 3087 3087 3087 3087 3087 3087 3087 3087 3087 3087 3087 3086 3086 3086
3062 3062 3063 3063 3064 3064 3064 3065 3065 3065 3065 3065 3066 3066 3067 3067 3068 3068 3069 3070 3070 3071 3072 3073 3073 3074 3075 3075 3075 3075 3076 3076 3077 3077 3077 3078 3078 3079 3079 3080 3080 3081 3081 3081 3082 3082 3083 3083 3084 3084 3084 3085 3085 3085 3085 3085 3085 3085 3085 3085 3085 3085 3085 3085 3084 3084 3084 3084 3083
3060 3060 3060 3061 3061 3062 3062 3062 3063 3063 3063 3063 3063 3064 3064 3065 3065 3066 3067 3067 3068 3069 3069 3070 3070 3071 3071 3072 3072 3073 3073 3074 3074 3074 3075 3075 3075 3076 3076 3077 3078 3078 3079 3079 3080 3080 3080 3081 3081 3081 3082 3082 3082 3082 3082 3082 3082 3082 3082 3082 3082 3082 3082 3082 3082 3081 3081 3081 3080
3057 3058 3058 3059 3059 3060 3060 3060 3060 3060 3060 3061 3061 3061 3062 3062 3063 3063 3064 3065 3065 3066 3066 3067 3067 3068 3068 3069 3069 3070 3070 3071 3071 3071 3072 3073 3073 3074 3074 3075 3075 3076 3076 3077 3077 3078 3078 3078 3079 3079 3079 3080 3080 3080 3080 3080 3080 3080 3080 3080 3080 3080 3079 3079 3079 3079 3079 3078 3078
3055 3055 3056 3056 3057 3057 3057 3058 3058 3058 3058 3059 3059 3059 3059 3060 3060 3061 3061 3062 3062 3063 3063 3064 3064 3065 3065 3066 3066 3067 3067 3068 3069 3069 3070 3070 3070 3071 3072 3072 3073 3073 3074 3074 3075 3075 3075 3076 3076 3076 3077 3077 3077 3077 3077 3077 3078 3078 3078 3077 3077 3077 3077 3076 3076 3076 3076 3076 3075
3052 3053 3053 3054 3054 3055 3055 3055 3055 3056 3056 3056 3056 3056 3057 3057 3058 3058 3058 3059 3059 3060 3060 3060 3061 3061 3062 3063 3063 3064 3065 3065 3066 3067 3067 3068 3068 3069 3070 3070 3071 3071 3071 3072 3072 3073 3073 3074 3074 3074 3074 3075 3075 3075 3075 3075 3075 3075 3075 3075 3075 3074 3074 3074 3074 3073 3073 3073 3072
3050 3050 3050 3051 3051 3052 3052 3052 3053 3053 3053 3054 3054 3054 3054 3055 3055 3055 3055 3055 3056 3056 3057 3057 3058 3059 3059 3060 3060 3061 3062 3063 3063 3064 3065 3065 3066 3067 3067 3068 3068 3069 3069 3070 3070 3070 3071 3071 3071 3072 3072 3072 3072 3073 3073 3073 3073 3072 3072 3072 3072 3072 3072 3071 3071 3070 3070 3070 3070
3047 3047 3048 3048 3048 3049 3049 3050 3050 3050 3050 3051 3051 3051 3051 3051 3052 3052 3052 3053 3053 3053 3054 3054 3055 3056 3056 3057 3058 3059 3059 3060 3061 3062 3062 3063 3064 3064 3065 3065 3066 3066 3067 3067 3068 3068 3068 3069 3069 3069 3070 3070 3070 3070 3070 3070 3070 3070 3070 3070 3070 3069 3069 3069 3068 3068 3067 3067 3067
3044 3045 3045 3045 3045 3046 3046 3047 3047 3047 3047 3048 3048 3048 3049 3049 3049 3049 3050 3050 3050 3051 3051 3052 3052 3053 3054 3054 3055 3056 3057 3058 3059 3059 3060 3060 3061 3062 3062 3063 3063 3064 3064 3065 3065 3065 3066 3066 3066 3067 3067 3068 3068 3068 3068 3068 3068 3067 3067 3067 3067 3067 3066 3066 3065 3065 3065 3064 3064
3041 3042 3042 3042 3042 3043 3043 3044 3044 3044 3045 3045 3045 3045 3046 3046 3046 3047 3047 3047 3048 3048 3049 3050 3050 3050 3051 3052 3053 3054 3055 3055 3056 3057 3058 3058 3059 3059 3060 3060 3061 3061 3062 3062 3063 3063 3064 3064 3064 3065 3065 3065 3065 3065 3065 3065 3065 3065 3065 3065 3064 3064 3064 3063 3062 3062 3061 3061 3061
3039 3039 3039 3039 3040 3040 3040 3040 3041 3041 3042 3042 3042 3043 3043 3044 3044 3044 3045 3045 3045 3046 3046 3047 3048 3048 3049 3050 3051 3051 3052 3053 3054 3055 3055 3056 3056 3057 3057 3058 3059 3059 3060 3060 3060 3061 3061 3062 3062 3062 3062 3063 3063 3063 3063 3063 3062 3062 3062 3062 3061 3061 3060 3060 3060 3059 3059 3058 3058
3036 3036 3036 3036 3036 3037 3037 3038 3038 3038 3039 3039 3040 3040 3041 3041 3042 3042 3043 3043 3043 3044 3044 3045 3045 3046 3047 3048 3048 3049 3050 3051 3051 3052 3053 3054 3054 3055 3055 3055 3056 3057 3057 3058 3058 3059 3059 3060 3060 3060 3060 3060 3060 3060 3060 3060 3060 3060 3060 3059 3059 3058 3058 3057 3057 3056 3056 3055 3055
3033 3033 3033 3034 3034 3034 3034 3035 3035 3035 3036 3037 3037 3038 3038 3039 3039 3040 3040 3041 3041 3042 3042 3043 3043 3044 3045 3045 3046 3047 3048 3048 3049 3050 3051 3051 3052 3052 3053 3053 3054 3055 3055 3056 3056 3056 3057 3057 3057 3058 3058 3058 3058 3058 3057 3057 3057 3057 3056 3056 3056 3055 3055 3055 3054 3053 3053 3052 3052
3030 3030 3031 3031 3031 3031 3032 3032 3032 3033 3034 3034 3035 3035 3036 3037 3037 3037 3038 3038 3039 3040 3040 3040 3041 3042 3043 3043 3044 3045 3045 3046 3047 3048 3049 3049 3050 3050 3050 3051 3052 3052 3053 3053 3054 3054 3055 3055 3055 3055 3055 3055 3055 3055 3055 3054 3054 3054 3054 3053 3053 3052 3052 3052 3051 3050 3050 3049 3049
3028 3028 3028 3028 3029 3029 3029 3030 3030 3030 3031 3032 3033 3033 3034 3034 3035 3035 3035 3036 3037 3037 3038 3038 3039 3040 3040 3041 3042 3043 3043 3044 3045 3046 3046 3047 3048 3048 3048 3049 3050 3050 3051 3051 3051 3052 3052 3052 3052 3053 3053 3053 3052 3052 3052 3052 3051 3051 3051 3051 3050 3050 3049 3049 3048 3047 3046 3046 3045
3025 3025 3026 3026 3026 3027 3027 3027 3028 3029 3029 3030 3030 3031 3031 3032 3032 3033 3033 3034 3034 3035 3035 3036 3037 3038 3038 3039 3040 3040 3041 3042 3043 3044 3044 3045 3045 3046 3046 3047 3047 3048 3049 3049 3049 3049 3050 3050 3050 3050 3050 3050 3050 3050 3049 3049 3049 3049 3049 3048 3047 3047 3046 3046 3045 3044 3043 3042 3042
3023 3023 3023 3024 3024 3025 3025 3025 3026 3026 3027 3028 3028 3029 3029 3030 3030 3030 3031 3031 3032 3032 3033 3034 3035 3035 3036 3037 3037 3038 3039 3040 3041 3041 3042 3043 3043 3044 3044 3045 3045 3045 3046 3046 3047 3047 3047 3047 3047 3048 3048 3048 3047 3047 3047 3047 3046 3046 3046 3045 3045 3044 3043 3043 3042 3041 3040 3039 3038
3020 3021 3021 3022 3022 3022 3023 3023 3024 3024 3025 3025 3026 3026 3027 3027 3028 3028 3029 3029 3030 3030 3031 3032 3032 3033 3034 3035 3035 3036 3037 3038 3038 3039 3040 3040 3041 3042 3042 3042 3043 3043 3044 3044 3044 3044 3045 3045 3045 3045 3045 3045 3045 3045 3045 3044 3044 3043 3043 3042 3042 3041 3040 3040 3039 3038 3037 3036 3035
3018 3019 3019 3020 3020 3020 3021 3021 3021 3022 3022 3023 3024 3024 3025 3025 3025 3026 3026 3027 3028 3028 3029 3030 3030 3031 3031 3032 3033 3034 3035 3035 3036 3037 3038 3039 3039 3040 3040 3040 3040 3041 3041 3041 3042 3042 3042 3042 3043 3043 3043 3043 3043 3042 3042 3041 3041 3040 3040 3039 3039 3038 3037 3036 3036 3035 3034 3033 3032
3016 3017 3017 3018 3018 3019 3019 3019 3019 3020 3020 3021 3021 3022 3022 3023 3023 3024 3024 3025 3025 3026 3027 3027 3028 3029 3029 3030 3031 3032 3032 3033 3034 3035 3036 3036 3037 3038 3038 3038 3038 3038 3039 3039 3039 3039 3040 3040 3040 3041 3040 3040 3040 3040 3039 3039 3038 3038 3037 3036 3036 3035 3034 3033 3033 3032 3031 3030 3029